Weather History for Henderson, KY

Change the Weather History Date:

Monday, November 18, 2013

  Actual Average Record
Temperature  
Mean Temperature 45 °F -  
Max Temperature 55 °F 57 °F 78 °F (1943)
Min Temperature 33 °F 38 °F 10 °F (1959)
Degree Days  
Heating Degree Days 20    
Moisture  
Dew Point 32 °F    
Average Humidity 59    
Maximum Humidity 87    
Minimum Humidity 38    
Precipitation  
Precipitation 0.00 in - - ()
Sea Level Pressure  
Sea Level Pressure 30.17 in    
Wind  
Wind Speed 7 mph (WNW)    
Max Wind Speed 20 mph    
Max Gust Speed 23 mph    
Visibility 10 miles    
Events      
Averages and records for this station are not official NWS values.
T = Trace of Precipitation, MM = Missing Value Source: NWS Daily Summary

Daily Weather History Graph

Daily Weather History Graph

Search for Another Location

Airport:

Trip Planner

Search our weather history database for the weather conditions in past years. The results will help you decide how hot, cold, wet, or windy it might be!

Date:

Astronomy

Nov. 18, 2013 Rise Set
Actual Time 6:34 AM CST 4:37 PM CST
Civil Twilight 6:06 AM CST 5:05 PM CST
Nautical Twilight 5:34 AM CST 5:37 PM CST
Astronomical Twilight 5:03 AM CST 6:08 PM CST
Moon 5:39 PM CST (11/18) 7:22 AM CST (11/18)
Length of Visible Light 10h 59m
Length of Day
10h 02m
Full, 99% of the Moon is Illuminated
Nov 18
Full
Nov 25
Last Quarter
Dec 2
New
Dec 9
First Quarter
Dec 17
Full

Hourly Weather History & Observations

Time (CST) Temp. Windchill Dew Point Humidity Pressure Visibility Wind Dir Wind Speed Gust Speed Precip Events Conditions
12:15 AM - - - N/A% - 10.0 mi North - - N/A   Clear
12:35 AM - - - N/A% - 10.0 mi North - - N/A   Clear
12:55 AM - - - N/A% - 10.0 mi North - - N/A   Clear
1:15 AM - - - N/A% - 10.0 mi North - - N/A   Clear
1:35 AM - - - N/A% - 10.0 mi North - - N/A   Clear
1:55 AM - - - N/A% - 10.0 mi North - - N/A   Clear
2:15 AM - - - N/A% - 10.0 mi North - - N/A   Clear
2:35 AM - - - N/A% - 10.0 mi North - - N/A   Clear
2:55 AM - - - N/A% - 10.0 mi North - - N/A   Clear
3:15 AM - - - N/A% - 10.0 mi North - - N/A   Clear
3:35 AM - - - N/A% - 10.0 mi North - - N/A   Clear
3:55 AM - - - N/A% - 10.0 mi North - - N/A   Clear
4:15 AM - - - N/A% - 10.0 mi North - - N/A   Clear
4:35 AM 42.8 °F 41.1 °F 35.6 °F 76% 30.04 in 10.0 mi WSW 3.5 mph - N/A   Clear
4:55 AM 39.2 °F 37.0 °F 35.6 °F 87% 30.04 in 10.0 mi SW 3.5 mph - N/A   Clear
5:15 AM 42.8 °F 41.1 °F 37.4 °F 81% 30.04 in 10.0 mi SW 3.5 mph - N/A   Clear
5:35 AM 39.2 °F - 35.6 °F 87% 30.04 in 10.0 mi Calm Calm - N/A   Clear
5:55 AM 37.4 °F 33.8 °F 33.8 °F 87% 30.05 in 10.0 mi WSW 4.6 mph - N/A   Clear
6:15 AM 37.4 °F 33.8 °F 33.8 °F 87% 30.06 in 10.0 mi WSW 4.6 mph - N/A   Clear
6:35 AM 39.2 °F 35.9 °F 35.6 °F 87% 30.07 in 10.0 mi West 4.6 mph - N/A   Clear
6:55 AM 39.2 °F 35.9 °F 35.6 °F 87% 30.08 in 10.0 mi West 4.6 mph - N/A   Clear
7:15 AM 42.8 °F 39.3 °F 37.4 °F 81% 30.09 in 10.0 mi West 5.8 mph - N/A   Clear
7:35 AM 44.6 °F 42.2 °F 39.2 °F 81% 30.10 in 10.0 mi West 4.6 mph - N/A   Clear
7:55 AM 48.2 °F - 39.2 °F 71% 30.11 in 10.0 mi West 9.2 mph - N/A   Clear
8:15 AM 48.2 °F - 39.2 °F 71% 30.12 in 10.0 mi WNW 11.5 mph - N/A   Clear
8:35 AM 50.0 °F - 39.2 °F 66% 30.13 in 10.0 mi WNW 10.4 mph - N/A   Clear
8:55 AM 50.0 °F - 41.0 °F 71% 30.13 in 10.0 mi WNW 12.7 mph 16.1 mph N/A   Clear
9:15 AM 51.8 °F - 39.2 °F 62% 30.13 in 10.0 mi NW 9.2 mph - N/A   Clear
9:35 AM 51.8 °F - 39.2 °F 62% 30.14 in 10.0 mi NW 9.2 mph - N/A   Clear
9:55 AM 51.8 °F - 37.4 °F 58% 30.14 in 10.0 mi WNW 10.4 mph - N/A   Clear
10:15 AM 53.6 °F - 39.2 °F 58% 30.14 in 10.0 mi NW 11.5 mph - N/A   Clear
10:35 AM 53.6 °F - 37.4 °F 54% 30.15 in 10.0 mi NW 16.1 mph - N/A   Clear
10:55 AM 53.6 °F - 39.2 °F 58% 30.14 in 10.0 mi WNW 16.1 mph 21.9 mph N/A   Clear
11:15 AM 53.6 °F - 39.2 °F 58% 30.14 in 10.0 mi WNW 13.8 mph - N/A   Clear
11:35 AM 55.4 °F - 37.4 °F 51% 30.14 in 10.0 mi NW 15.0 mph 21.9 mph N/A   Clear
11:55 AM 55.4 °F - 37.4 °F 51% 30.14 in 10.0 mi NW 17.3 mph 23.0 mph N/A   Clear
12:15 PM 55.4 °F - 37.4 °F 51% 30.14 in 10.0 mi NW 12.7 mph - N/A   Clear
12:35 PM 55.4 °F - 37.4 °F 51% 30.14 in 10.0 mi WNW 13.8 mph 20.7 mph N/A   Clear
12:55 PM 55.4 °F - 35.6 °F 47% 30.14 in 10.0 mi NW 17.3 mph 23.0 mph N/A   Clear
1:15 PM 55.4 °F - 35.6 °F 47% 30.14 in 10.0 mi WNW 19.6 mph - N/A   Clear
1:35 PM 55.4 °F - 35.6 °F 47% 30.15 in 10.0 mi WNW 15.0 mph 21.9 mph N/A   Partly Cloudy
1:55 PM 55.4 °F - 32.0 °F 41% 30.15 in 10.0 mi WNW 16.1 mph 21.9 mph N/A   Clear
2:15 PM 55.4 °F - 30.2 °F 38% 30.15 in 10.0 mi NW 12.7 mph - N/A   Clear
2:35 PM 55.4 °F - 30.2 °F 38% 30.16 in 10.0 mi NW 15.0 mph 20.7 mph N/A   Clear
2:55 PM 55.4 °F - 30.2 °F 38% 30.16 in 10.0 mi WNW 17.3 mph - N/A   Clear
3:15 PM 55.4 °F - 32.0 °F 41% 30.17 in 10.0 mi NW 15.0 mph 18.4 mph N/A   Clear
3:35 PM 53.6 °F - 30.2 °F 41% 30.18 in 10.0 mi NW 10.4 mph 19.6 mph N/A   Clear
3:55 PM 53.6 °F - 28.4 °F 38% 30.18 in 10.0 mi NW 10.4 mph 20.7 mph N/A   Clear
4:15 PM 51.8 °F - 30.2 °F 44% 30.19 in 10.0 mi WNW 8.1 mph - N/A   Clear
4:35 PM 51.8 °F - 26.6 °F 38% 30.19 in 10.0 mi NW 10.4 mph - N/A   Clear
4:55 PM 48.2 °F - 26.6 °F 43% 30.20 in 10.0 mi NW 6.9 mph - N/A   Clear
5:15 PM 48.2 °F - 28.4 °F 46% 30.20 in 10.0 mi NW 5.8 mph - N/A   Clear
5:35 PM 46.4 °F 44.3 °F 26.6 °F 46% 30.21 in 10.0 mi NW 4.6 mph - N/A   Clear
5:55 PM 48.2 °F - 26.6 °F 43% 30.22 in 10.0 mi NW 8.1 mph - N/A   Clear
6:15 PM 46.4 °F 42.9 °F 28.4 °F 50% 30.22 in 10.0 mi NW 6.9 mph - N/A   Clear
6:35 PM 46.4 °F 43.5 °F 26.6 °F 46% 30.23 in 10.0 mi NW 5.8 mph - N/A   Clear
6:55 PM 44.6 °F 41.4 °F 26.6 °F 49% 30.23 in 10.0 mi NW 5.8 mph - N/A   Clear
7:15 PM 44.6 °F 42.2 °F 28.4 °F 53% 30.23 in 10.0 mi NW 4.6 mph - N/A   Clear
7:35 PM 42.8 °F 39.3 °F 28.4 °F 57% 30.24 in 10.0 mi NW 5.8 mph - N/A   Clear
7:55 PM 42.8 °F 40.1 °F 28.4 °F 57% 30.24 in 10.0 mi WNW 4.6 mph - N/A   Clear
8:15 PM 42.8 °F 40.1 °F 26.6 °F 53% 30.25 in 10.0 mi NW 4.6 mph - N/A   Clear
8:35 PM 41.0 °F 38.0 °F 26.6 °F 57% 30.25 in 10.0 mi NW 4.6 mph - N/A   Clear
8:55 PM 41.0 °F 38.0 °F 26.6 °F 57% 30.26 in 10.0 mi WNW 4.6 mph - N/A   Clear
9:15 PM 39.2 °F 35.0 °F 28.4 °F 65% 30.26 in 10.0 mi NW 5.8 mph - N/A   Clear
9:35 PM 41.0 °F 38.0 °F 26.6 °F 57% 30.26 in 10.0 mi NW 4.6 mph - N/A   Clear
9:55 PM 41.0 °F 39.0 °F 26.6 °F 57% 30.26 in 10.0 mi NW 3.5 mph - N/A   Clear
10:15 PM 37.4 °F 34.9 °F 26.6 °F 65% 30.27 in 10.0 mi WNW 3.5 mph - N/A   Clear
10:35 PM 37.4 °F 34.9 °F 28.4 °F 70% 30.27 in 10.0 mi West 3.5 mph - N/A   Clear
10:55 PM 35.6 °F - 28.4 °F 75% 30.28 in 10.0 mi Calm Calm - N/A   Clear
11:15 PM 35.6 °F 32.8 °F 28.4 °F 75% 30.28 in 10.0 mi West 3.5 mph - N/A   Clear
11:35 PM 35.6 °F 32.8 °F 26.6 °F 70% 30.29 in 10.0 mi West 3.5 mph - N/A   Clear
11:55 PM 33.8 °F - 26.6 °F 75% 30.29 in 10.0 mi Calm Calm - N/A   Clear